FW2305 Weather Reports


time (UTC)temp
F
wind
direction
speed
knots
gust
knots
rain 1hr
in
rain 24hr
in
rain mn
in
humidity
%
barometer
mb
20260504012057 57 194 0.0 2.6 0.00 0.00 0.00 51 1000.9
20260504011112 59 194 0.9 2.6 0.00 0.00 0.00 48 1000.9
20260504010106 60 194 0.0 1.7 0.00 0.00 0.00 47 1000.8
20260504003937 64 194 0.0 2.6 0.00 0.00 0.00 36 1000.8
20260504002909 66 195 0.0 1.7 0.00 0.00 0.00 32 1000.8
20260504000800 68 124 0.9 6.1 0.00 0.00 0.00 26 1000.5
20260503235730 69 232 0.9 6.1 0.00 0.00 0.00 24 1000.4
20260503234723 70 225 0.9 6.1 0.00 0.00 0.00 22 1000.4
20260503233701 71 210 0.9 6.1 0.00 0.00 0.00 23 1000.2
20260503232652 72 229 0.9 4.3 0.00 0.00 0.00 21 1000.3
20260503231651 72 222 1.7 7.8 0.00 0.00 0.00 21 1000.3
20260503230715 73 258 0.9 7.8 0.00 0.00 0.00 22 1000.3
20260503225655 73 254 1.7 7.8 0.00 0.00 0.00 23 1000.1
20260503224639 74 315 2.6 7.8 0.00 0.00 0.00 19 1000.3
20260503223645 74 305 1.7 6.1 0.00 0.00 0.00 16 1000.2
20260503222645 74 261 1.7 5.2 0.00 0.00 0.00 18 1000.3
20260503221657 74 224 1.7 8.7 0.00 0.00 0.00 18 1000.3
20260503220622 75 273 2.6 11.3 0.00 0.00 0.00 19 1000.3
20260503215638 74 266 2.6 11.3 0.00 0.00 0.00 22 1000.2
20260503214629 74 0 2.6 9.6 0.00 0.00 0.00 21 1000.1
20260503213631 74 252 2.6 7.8 0.00 0.00 0.00 22 1000.1
20260503212604 74 333 1.7 7.8 0.00 0.00 0.00 21 1000.1
20260503211550 75 288 1.7 6.1 0.00 0.00 0.00 21 1000.0
20260503202115 73 278 3.5 7.8 0.00 0.00 0.00 26 1000.6
20260503201053 73 323 3.5 7.8 0.00 0.00 0.00 24 1000.7
20260503193823 71 338 4.3 11.3 0.00 0.00 0.00 26 1001.0
20260503192805 70 249 3.5 8.7 0.00 0.00 0.00 27 1001.1
20260503191800 70 54 2.6 7.8 0.00 0.00 0.00 27 1001.4
20260503185635 69 277 3.5 11.3 0.00 0.00 0.00 28 1001.6
20260503184602 69 138 3.5 9.6 0.00 0.00 0.00 27 1001.7
20260503183616 69 268 2.6 9.6 0.00 0.00 0.00 27 1001.7
20260503181505 68 281 1.7 7.0 0.00 0.00 0.00 28 1001.8
20260503175301 67 325 4.3 13.0 0.00 0.00 0.00 31 1002.2
20260503174308 67 30 2.6 9.6 0.00 0.00 0.00 31 1002.2
20260503173307 67 153 2.6 7.8 0.00 0.00 0.00 28 1002.4
20260503172325 66 326 2.6 7.8 0.00 0.00 0.00 30 1002.6
20260503171254 66 64 2.6 12.2 0.00 0.00 0.00 31 1002.7
20260503170305 65 335 5.2 12.2 0.00 0.00 0.00 32 1002.9
20260503160131 62 20 5.2 11.3 0.00 0.00 0.00 33 1003.3
20260503100253 47 74 0.0 0.9 0.00 0.00 0.00 60 1007.2
20260503080642 49 304 0.0 0.0 0.00 0.00 0.00 50 1008.0
20260503072555 50 228 0.0 3.5 0.00 0.00 0.00 42 1008.1
20260503071544 50 136 0.0 0.0 0.00 0.00 0.00 47 1008.3
20260503070543 50 141 0.9 4.3 0.00 0.00 0.00 46 1008.2
20260503054409 44 219 0.0 1.7 0.00 0.00 0.00 56 1009.0
20260503053337 43 220 0.0 0.0 0.00 0.00 0.00 58 1009.1
20260503052305 43 220 0.0 0.0 0.00 0.00 0.00 58 1009.2
20260503051240 43 220 0.0 0.0 0.00 0.00 0.00 58 1009.3
20260503050213 43 220 0.0 0.0 0.00 0.00 0.00 58 1009.3
20260503045154 43 219 0.0 0.0 0.00 0.00 0.00 58 1009.3
20260503044136 43 219 0.0 0.0 0.00 0.00 0.00 59 1009.4
20260503043159 43 219 0.0 0.0 0.00 0.00 0.00 60 1009.5
20260503042159 43 219 0.0 0.0 0.00 0.00 0.00 60 1009.6
20260503041153 43 219 0.0 0.0 0.00 0.00 0.00 59 1009.7
20260503040133 44 219 0.0 0.0 0.00 0.00 0.00 59 1009.8
20260503033959 44 219 0.0 0.0 0.00 0.00 0.00 59 1010.0
20260503033011 44 223 0.0 0.0 0.00 0.00 0.00 59 1010.0
20260503032003 44 223 0.0 0.9 0.00 0.00 0.00 58 1010.2
20260503030929 45 223 0.0 0.9 0.00 0.00 0.00 57 1010.2
20260503025940 45 223 0.0 2.6 0.00 0.00 0.00 56 1010.4
20260503024918 46 223 0.0 2.6 0.00 0.00 0.00 55 1010.4
20260503023912 46 223 0.0 2.6 0.00 0.00 0.00 54 1010.3
20260503022854 47 223 0.0 2.6 0.00 0.00 0.00 55 1010.4
20260503021903 47 223 0.0 1.7 0.00 0.00 0.00 53 1010.4
20260503020921 47 223 0.0 0.9 0.00 0.00 0.00 54 1010.4
20260503015916 48 223 0.0 0.9 0.00 0.00 0.00 54 1010.4
20260503014902 48 223 0.0 0.9 0.00 0.00 0.00 54 1010.3
20260503013852 49 223 0.0 0.9 0.00 0.00 0.00 52 1010.4
20260503012915 50 223 0.0 0.9 0.00 0.00 0.00 53 1010.3